Weather History for Olathe New Century, KS

Change the Weather History Date:

Thursday, January 24, 2013

  Actual Average Record
Temperature  
Mean Temperature 18 °F -  
Max Temperature 26 °F 37 °F 57 °F (2006)
Min Temperature 10 °F 20 °F -2 °F (2008)
Degree Days  
Heating Degree Days 47    
Moisture  
Dew Point 6 °F    
Average Humidity 53    
Maximum Humidity 71    
Minimum Humidity 40    
Precipitation  
Precipitation 0.00 in - - ()
Sea Level Pressure  
Sea Level Pressure 30.37 in    
Wind  
Wind Speed 10 mph (ENE)    
Max Wind Speed 15 mph    
Max Gust Speed 21 mph    
Visibility 10 miles    
Events      
Averages and records for this station are not official NWS values.
T = Trace of Precipitation, MM = Missing Value Source: NWS Daily Summary

Daily Weather History Graph

Daily Weather History Graph

Search for Another Location

Airport:

Trip Planner

Search our weather history database for the weather conditions in past years. The results will help you decide how hot, cold, wet, or windy it might be!

Date:

Astronomy

Jan. 24, 2013 Rise Set
Actual Time 7:31 AM CST 5:32 PM CST
Civil Twilight 7:03 AM CST 6:00 PM CST
Nautical Twilight 6:30 AM CST 6:33 PM CST
Astronomical Twilight 5:59 AM CST 7:04 PM CST
Moon 3:35 PM CST (1/24) 5:29 AM CST (1/24)
Length of Visible Light 10h 57m
Length of Day
10h 00m
Waxing Gibbous, 94% of the Moon is Illuminated
Jan 24
Waxing Gibbous
Jan 26
Full
Feb 3
Last Quarter
Feb 10
New
Feb 17
First Quarter

Hourly Weather History & Observations

Time (CST) Temp. Windchill Dew Point Humidity Pressure Visibility Wind Dir Wind Speed Gust Speed Precip Events Conditions
12:53 AM 21.9 °F 11.0 °F 12.9 °F 68% 30.44 in 10.0 mi North 10.4 mph - N/A   Clear
1:53 AM 21.0 °F 10.6 °F 12.9 °F 71% 30.46 in 10.0 mi North 9.2 mph - N/A   Clear
2:53 AM 19.0 °F 8.2 °F 8.1 °F 62% 30.47 in 10.0 mi NNE 9.2 mph - N/A   Clear
3:53 AM 17.1 °F 4.3 °F 6.1 °F 62% 30.47 in 10.0 mi NNE 11.5 mph - N/A   Clear
4:53 AM 15.1 °F 1.1 °F 3.9 °F 61% 30.47 in 10.0 mi NE 12.7 mph - N/A   Clear
6:53 AM 12.0 °F -3.4 °F 1.0 °F 61% 30.49 in 10.0 mi ENE 13.8 mph - N/A   Clear
7:53 AM 10.0 °F -2.9 °F -0.0 °F 64% 30.50 in 10.0 mi ENE 9.2 mph - N/A   Clear
8:53 AM 10.9 °F -5.4 °F -0.0 °F 61% 30.50 in 10.0 mi ENE 15.0 mph - N/A   Clear
9:53 AM 14.0 °F -1.4 °F 1.9 °F 59% 30.52 in 10.0 mi ENE 15.0 mph 20.7 mph N/A   Clear
10:53 AM 17.1 °F 4.3 °F 1.9 °F 52% 30.51 in 10.0 mi East 11.5 mph - N/A   Clear
11:53 AM 21.0 °F 10.6 °F 3.0 °F 46% 30.48 in 10.0 mi ENE 9.2 mph - N/A   Clear
12:53 PM 21.9 °F 13.4 °F 1.9 °F 42% 30.42 in 10.0 mi East 6.9 mph - N/A   Clear
1:53 PM 24.1 °F 13.7 °F 3.0 °F 40% 30.35 in 10.0 mi East 10.4 mph - N/A   Clear
2:53 PM 25.0 °F 15.5 °F 3.9 °F 41% 30.32 in 10.0 mi East 9.2 mph - N/A   Scattered Clouds
3:53 PM 25.0 °F 14.8 °F 5.0 °F 43% 30.29 in 10.0 mi East 10.4 mph - N/A   Overcast
4:53 PM 26.1 °F 16.8 °F 6.1 °F 43% 30.29 in 10.0 mi ESE 9.2 mph - N/A   Overcast
5:19 PM 24.8 °F 14.6 °F 6.8 °F 46% 30.23 in 10.0 mi East 10.4 mph - N/A   Overcast
5:53 PM 25.0 °F 16.3 °F 6.1 °F 45% 30.27 in 10.0 mi East 8.1 mph - N/A   Overcast
6:53 PM 25.0 °F 14.2 °F 7.0 °F 46% 30.25 in 10.0 mi East 11.5 mph - N/A   Overcast
7:53 PM 25.0 °F 18.1 °F 8.1 °F 49% 30.27 in 10.0 mi ENE 5.8 mph - N/A   Overcast
8:53 PM 25.0 °F 18.1 °F 8.1 °F 49% 30.25 in 10.0 mi ESE 5.8 mph - N/A   Overcast
9:53 PM 26.1 °F 19.4 °F 9.0 °F 49% 30.22 in 10.0 mi East 5.8 mph - N/A   Overcast
10:53 PM 26.1 °F 19.4 °F 9.0 °F 49% 30.22 in 10.0 mi ENE 5.8 mph - N/A   Overcast
11:53 PM 26.1 °F 20.5 °F 10.0 °F 51% 30.21 in 10.0 mi East 4.6 mph - N/A   Overcast